GW0416 Weather Reports


time (UTC)temp
C
wind
direction
speed
KPH
gust
KPH
rain 1hr
cm
rain 24hr
cm
rain mn
cm
humidity
%
barometer
mb
20260505203032 7 355 29.0 53.1 0.00 0.00 0.00 38 1019.0
20260505201533 7 349 30.6 45.1 0.00 0.00 0.00 38 1019.1
20260505200030 7 340 32.2 51.5 0.00 0.00 0.00 40 1019.0
20260505194532 6 335 29.0 48.3 0.00 0.00 0.00 40 1019.1
20260505193032 7 344 32.2 45.1 0.00 0.00 0.00 38 1019.1
20260505191535 7 5 32.2 49.9 0.00 0.00 0.00 39 1019.2
20260505190029 6 350 37.0 54.7 0.00 0.00 0.00 40 1019.1
20260505184539 6 14 29.0 51.5 0.00 0.00 0.00 42 1019.0
20260505183031 6 317 32.2 46.7 0.00 0.00 0.00 44 1019.3
20260505181537 6 309 25.7 45.1 0.00 0.00 0.00 44 1019.1
20260505180033 6 341 32.2 46.7 0.00 0.00 0.00 44 1019.1
20260505174537 6 344 29.0 43.5 0.00 0.00 0.00 43 1019.1
20260505173031 5 326 24.1 38.6 0.00 0.00 0.00 47 1019.2
20260505171538 5 348 24.1 40.2 0.00 0.00 0.00 46 1019.4
20260505170032 5 319 25.7 35.4 0.00 0.00 0.00 50 1019.5
20260505164533 4 31 29.0 40.2 0.00 0.00 0.00 51 1019.6
20260505163032 4 26 22.5 33.8 0.00 0.00 0.00 52 1019.6
20260505161532 3 332 16.1 25.7 0.00 0.00 0.00 55 1019.7
20260505153039 3 338 19.3 29.0 0.00 0.00 0.00 58 1019.7
20260505151532 3 23 20.9 32.2 0.00 0.00 0.00 58 1019.9
20260505124530 0 346 16.1 19.3 0.00 0.00 0.00 69 1019.0
20260505123045 0 351 16.1 22.5 0.00 0.00 0.00 69 1018.7
20260505121532 0 336 12.9 20.9 0.00 0.00 0.00 69 1018.8
20260505120039 0 347 17.7 24.1 0.00 0.00 0.00 68 1018.7
20260505114532 0 344 17.7 22.5 0.00 0.00 0.00 67 1018.5
20260505113032 0 5 16.1 22.5 0.00 0.00 0.00 64 1018.5
20260505111535 0 5 16.1 20.9 0.00 0.00 0.00 64 1018.3
20260505101532 1 5 14.5 19.3 0.00 0.00 0.00 62 1018.4
20260505100034 1 5 16.1 22.5 0.00 0.00 0.00 60 1018.3
20260505094532 1 5 16.1 20.9 0.00 0.00 0.00 61 1018.2
20260505093031 1 360 14.5 17.7 0.00 0.00 0.00 60 1018.1
20260505091530 1 5 11.3 14.5 0.00 0.00 0.00 59 1018.1
20260505090030 1 13 9.7 14.5 0.00 0.00 0.00 60 1018.2
20260505084536 1 5 11.3 14.5 0.00 0.00 0.00 59 1018.0
20260505083031 2 355 11.3 14.5 0.00 0.00 0.00 58 1018.1
20260505081531 2 342 11.3 16.1 0.00 0.00 0.00 57 1018.1
20260505080031 2 344 6.4 9.7 0.00 0.00 0.00 57 1018.0
20260505074534 2 313 4.8 8.0 0.00 0.00 0.00 57 1017.9
20260505073032 2 311 4.8 8.0 0.00 0.00 0.00 55 1018.0
20260505071530 3 5 4.8 8.0 0.00 0.00 0.00 55 1017.8
20260505070032 2 0 0.0 4.8 0.00 0.00 0.00 55 1017.8
20260505064533 2 343 3.2 9.7 0.00 0.00 0.00 55 1018.1
20260505063032 2 309 4.8 9.7 0.00 0.00 0.00 55 1017.9
20260505061530 2 279 6.4 12.9 0.00 0.00 0.00 55 1017.6
20260505060032 2 309 3.2 9.7 0.00 0.00 0.00 55 1017.9
20260505054544 2 331 3.2 12.9 0.00 0.00 0.00 55 1017.9
20260505053030 2 11 4.8 8.0 0.00 0.00 0.00 56 1017.6
20260505051532 1 44 6.4 9.7 0.00 0.00 0.00 58 1017.4
20260505041532 3 44 12.9 16.1 0.00 0.00 0.00 53 1017.5
20260505040030 3 42 8.0 11.3 0.00 0.00 0.00 52 1017.4
20260505034538 4 48 11.3 19.3 0.00 0.00 0.00 51 1017.4
20260505033031 5 40 12.9 22.5 0.00 0.00 0.00 50 1016.9
20260505031531 5 33 17.7 27.4 0.00 0.00 0.00 48 1016.8
20260505030043 5 36 17.7 27.4 0.00 0.00 0.00 47 1016.5
20260505024529 6 35 19.3 25.7 0.00 0.00 0.00 45 1016.6
20260505023039 7 33 22.5 33.8 0.00 0.00 0.00 43 1016.3
20260505021531 7 42 30.6 38.6 0.00 0.00 0.00 41 1016.1
20260505020034 8 30 30.6 41.8 0.00 0.00 0.00 38 1015.9
20260505014537 9 34 29.0 41.8 0.00 0.00 0.00 35 1015.7
20260505013033 10 13 29.0 45.1 0.00 0.00 0.00 32 1015.5
20260505011530 10 31 32.2 48.3 0.00 0.00 0.00 29 1015.3
20260505010030 11 360 30.6 49.9 0.00 0.00 0.00 26 1015.3
20260505004554 11 9 33.8 46.7 0.00 0.00 0.00 26 1015.4
20260505003030 11 30 32.2 53.1 0.00 0.00 0.00 25 1015.1
20260505001536 11 344 38.6 54.7 0.00 0.00 0.00 23 1015.3
20260505000036 11 355 41.8 54.7 0.00 0.00 0.00 23 1015.2
20260504234528 11 355 41.8 57.9 0.00 0.00 0.00 24 1015.4
20260504233028 11 24 40.2 54.7 0.00 0.00 0.00 25 1015.2
20260504231530 11 5 48.3 61.2 0.00 0.00 0.00 25 1015.1
20260504230032 11 351 45.1 66.0 0.00 0.00 0.00 25 1015.1
20260504224534 11 9 33.8 69.2 0.00 0.00 0.00 26 1015.1
20260504223030 11 343 46.7 61.2 0.00 0.00 0.00 27 1015.0
20260504221538 11 5 37.0 57.9 0.00 0.00 0.00 30 1015.1
20260504220028 11 360 43.5 59.5 0.00 0.00 0.00 29 1015.0
20260504214531 11 336 38.6 57.9 0.00 0.00 0.00 30 1015.1
20260504213039 11 5 37.0 59.5 0.00 0.00 0.00 32 1015.2
20260504211535 10 343 38.6 51.5 0.00 0.00 0.00 34 1015.5
20260504210031 11 9 33.8 57.9 0.00 0.00 0.00 33 1015.5
20260504204533 10 343 38.6 61.2 0.00 0.00 0.00 33 1015.7